Location: Sungai Dangang
(2.7500°N, 113.8333°E)
Time: 19:14:40
(UTC+00:00)

Ariane H10+ - Pass Details

Date: 26 September 2021
Orbit: 237 x 7755 km, 6.8° (Epoch: 21 October)

Event Time Altitude Azimuth Distance (km) Brightness Sun altitude
Rises 11:07:17 0° 269° (W) 3,785 7.7 -12.9°
Reaches altitude 10° 11:11:15 10° 260° (W) 1,989 5.6 -13.9°
Maximum altitude 11:14:50 31° 196° (SSW) 663 1.9 -14.8°
Enters shadow 11:15:49 22° 151° (SSE) 744 1.7 -15.0°
